Change the Weather History Date:

Monday, November 25, 2013

  Actual Average Record
Temperature  
Mean Temperature 32 °F -  
Max Temperature 37 °F 42 °F 62 °F (1998)
Min Temperature 26 °F 27 °F 0 °F (1977)
Degree Days  
Heating Degree Days 34    
Moisture  
Dew Point 18 °F    
Average Humidity 60    
Maximum Humidity 80    
Minimum Humidity 47    
Precipitation  
Precipitation 0.00 in - - ()
Sea Level Pressure  
Sea Level Pressure 30.17 in    
Wind  
Wind Speed 12 mph (SW)    
Max Wind Speed 18 mph    
Max Gust Speed 26 mph    
Visibility 10 miles    
Events Snow    
Averages and records for this station are not official NWS values.
T = Trace of Precipitation, MM = Missing Value Source: NWS Daily Summary

Daily Weather History Graph

Daily Weather History Graph

Search for Another Location

Airport or City:

Trip Planner

Search our weather history database for the weather conditions in past years. The results will help you decide how hot, cold, wet, or windy it might be!

Date:

Astronomy

Nov. 25, 2013 Rise Set
Actual Time 7:07 AM CST 4:42 PM CST
Civil Twilight 6:37 AM CST 5:12 PM CST
Nautical Twilight 6:03 AM CST 5:46 PM CST
Astronomical Twilight 5:30 AM CST 6:19 PM CST
Moon No Moon Rise 12:22 PM CST (11/25)
Length of Visible Light 10h 35m
Length of Day
9h 34m
Waning Gibbous, 51% of the Moon is Illuminated
Nov 25
Waning Gibbous
Nov 25
Last Quarter
Dec 2
New
Dec 9
First Quarter
Dec 17
Full

Hourly Weather History & Observations

Time (CST) Temp. Windchill Dew Point Humidity Pressure Visibility Wind Dir Wind Speed Gust Speed Precip Events Conditions
12:15 AM 26.6 °F 15.2 °F 10.4 °F 51% 30.30 in 10.0 mi South 13.8 mph 19.6 mph N/A Snow Light Snow
12:35 AM 26.6 °F 15.7 °F 10.4 °F 51% 30.30 in 10.0 mi SSW 12.7 mph 19.6 mph N/A Snow Light Snow
12:55 AM 26.6 °F 14.7 °F 10.4 °F 51% 30.29 in 10.0 mi SSW 15.0 mph - N/A   Overcast
1:15 AM 26.6 °F 15.7 °F 10.4 °F 51% 30.29 in 10.0 mi SSW 12.7 mph - N/A   Overcast
1:35 AM 26.6 °F 15.2 °F 10.4 °F 51% 30.28 in 10.0 mi SSW 13.8 mph 19.6 mph N/A Snow Light Snow
1:55 AM 26.6 °F 14.3 °F 10.4 °F 51% 30.28 in 10.0 mi SSW 16.1 mph - N/A   Mostly Cloudy
2:15 AM 26.6 °F 14.7 °F 10.4 °F 51% 30.28 in 10.0 mi SSW 15.0 mph - N/A Snow Light Snow
2:35 AM 26.6 °F 15.7 °F 10.4 °F 51% 30.27 in 10.0 mi SSW 12.7 mph - N/A   Overcast
2:55 AM 28.4 °F 19.1 °F 10.4 °F 47% 30.26 in 10.0 mi SSW 10.4 mph - N/A   Overcast
3:15 AM 28.4 °F 18.5 °F 10.4 °F 47% 30.25 in 10.0 mi SSW 11.5 mph - N/A   Overcast
3:35 AM 28.4 °F 17.5 °F 10.4 °F 47% 30.24 in 10.0 mi SSW 13.8 mph - N/A   Overcast
3:55 AM 28.4 °F 18.0 °F 10.4 °F 47% 30.23 in 10.0 mi SSW 12.7 mph - N/A   Overcast
4:15 AM 28.4 °F 19.1 °F 10.4 °F 47% 30.22 in 10.0 mi SSW 10.4 mph - N/A   Overcast
4:35 AM 28.4 °F 18.5 °F 10.4 °F 47% 30.22 in 10.0 mi SSW 11.5 mph - N/A   Overcast
4:55 AM 28.4 °F 19.7 °F 12.2 °F 51% 30.22 in 10.0 mi SSW 9.2 mph - N/A   Overcast
5:15 AM 28.4 °F 18.0 °F 12.2 °F 51% 30.21 in 10.0 mi SSW 12.7 mph - N/A   Overcast
5:35 AM 28.4 °F 18.5 °F 12.2 °F 51% 30.21 in 10.0 mi SSW 11.5 mph - N/A   Overcast
5:55 AM 28.4 °F 18.0 °F 12.2 °F 51% 30.20 in 10.0 mi SSW 12.7 mph - N/A   Overcast
6:15 AM 28.4 °F 17.0 °F 12.2 °F 51% 30.19 in 10.0 mi SSW 15.0 mph - N/A   Overcast
6:35 AM 28.4 °F 17.0 °F 12.2 °F 51% 30.19 in 10.0 mi SSW 15.0 mph - N/A Snow Light Snow
6:55 AM 28.4 °F 15.8 °F 12.2 °F 51% 30.17 in 9.0 mi SSW 18.4 mph 24.2 mph N/A Snow Light Snow
7:15 AM 28.4 °F 17.5 °F 12.2 °F 51% 30.18 in 10.0 mi SSW 13.8 mph 24.2 mph N/A Snow Light Snow
7:35 AM 28.4 °F 17.0 °F 15.8 °F 59% 30.19 in 5.0 mi SW 15.0 mph - N/A Snow Light Snow
7:55 AM 28.4 °F 17.5 °F 15.8 °F 59% 30.19 in 5.0 mi SW 13.8 mph 20.7 mph N/A Snow Light Snow
8:15 AM 28.4 °F 17.5 °F 17.6 °F 64% 30.19 in 10.0 mi SW 13.8 mph - N/A Snow Light Snow
8:35 AM 28.4 °F 17.0 °F 17.6 °F 64% 30.18 in 10.0 mi SW 15.0 mph - N/A   Mostly Cloudy
8:55 AM 30.2 °F 20.8 °F 15.8 °F 55% 30.17 in 10.0 mi SSW 11.5 mph - N/A Snow Light Snow
9:15 AM 30.2 °F 19.8 °F 15.8 °F 55% 30.17 in 10.0 mi SW 13.8 mph 21.9 mph N/A Snow Light Snow
9:35 AM 30.2 °F 19.8 °F 15.8 °F 55% 30.18 in 10.0 mi SW 13.8 mph - N/A   Overcast
9:55 AM 32.0 °F 22.1 °F 15.8 °F 51% 30.17 in 10.0 mi SSW 13.8 mph 20.7 mph N/A Snow Light Snow
10:15 AM 32.0 °F 21.6 °F 15.8 °F 51% 30.17 in 10.0 mi SSW 15.0 mph 24.2 mph N/A Snow Light Snow
10:35 AM 32.0 °F 22.1 °F 17.6 °F 55% 30.17 in 10.0 mi SW 13.8 mph 21.9 mph N/A Snow Light Snow
10:55 AM 32.0 °F 20.5 °F 17.6 °F 55% 30.16 in 10.0 mi SW 18.4 mph 26.5 mph N/A Snow Light Snow
11:15 AM 32.0 °F 21.2 °F 19.4 °F 60% 30.15 in 10.0 mi SW 16.1 mph 23.0 mph N/A   Mostly Cloudy
11:35 AM 32.0 °F 20.5 °F 19.4 °F 60% 30.14 in 10.0 mi SW 18.4 mph - N/A Snow Light Snow
11:55 AM 33.8 °F 23.9 °F 21.2 °F 60% 30.14 in 10.0 mi SW 15.0 mph - N/A   Overcast
12:15 PM 33.8 °F 24.3 °F 19.4 °F 56% 30.14 in 10.0 mi SW 13.8 mph - N/A   Overcast
12:35 PM 35.6 °F 27.1 °F 19.4 °F 52% 30.13 in 10.0 mi SW 12.7 mph 18.4 mph N/A   Overcast
12:55 PM 35.6 °F 26.6 °F 21.2 °F 56% 30.13 in 10.0 mi WSW 13.8 mph - N/A   Overcast
1:15 PM 35.6 °F 25.9 °F 21.2 °F 56% 30.11 in 10.0 mi SW 16.1 mph - N/A   Overcast
1:35 PM 35.6 °F 26.6 °F 21.2 °F 56% 30.11 in 10.0 mi SW 13.8 mph 20.7 mph N/A   Mostly Cloudy
1:55 PM 35.6 °F 26.6 °F 19.4 °F 52% 30.11 in 10.0 mi WSW 13.8 mph - N/A   Overcast
2:15 PM 37.4 °F 28.2 °F 21.2 °F 52% 30.10 in 10.0 mi SW 16.1 mph - N/A   Overcast
2:35 PM 37.4 °F 28.9 °F 21.2 °F 52% 30.10 in 10.0 mi WSW 13.8 mph 20.7 mph N/A   Mostly Cloudy
2:55 PM 37.4 °F 29.8 °F 21.2 °F 52% 30.10 in 10.0 mi WSW 11.5 mph 18.4 mph N/A   Partly Cloudy
3:15 PM 35.6 °F 28.0 °F 21.2 °F 56% 30.10 in 10.0 mi WSW 10.4 mph - N/A   Partly Cloudy
3:35 PM 35.6 °F 28.6 °F 21.2 °F 56% 30.12 in 10.0 mi WSW 9.2 mph - N/A   Scattered Clouds
3:55 PM 35.6 °F 29.2 °F 21.2 °F 56% 30.12 in 10.0 mi WSW 8.1 mph - N/A   Mostly Cloudy
4:15 PM 35.6 °F 29.2 °F 23.0 °F 60% 30.12 in 10.0 mi WSW 8.1 mph - N/A   Mostly Cloudy
4:35 PM 35.6 °F 29.9 °F 23.0 °F 60% 30.13 in 10.0 mi WSW 6.9 mph - N/A   Mostly Cloudy
4:55 PM 33.8 °F 27.7 °F 23.0 °F 65% 30.13 in 10.0 mi WSW 6.9 mph - N/A   Scattered Clouds
5:15 PM 33.8 °F 27.7 °F 23.0 °F 65% 30.13 in 10.0 mi West 6.9 mph - N/A   Mostly Cloudy
5:35 PM 33.8 °F 29.6 °F 23.0 °F 65% 30.14 in 10.0 mi West 4.6 mph - N/A   Overcast
5:55 PM 33.8 °F 29.6 °F 23.0 °F 65% 30.14 in 10.0 mi West 4.6 mph - N/A   Overcast
6:15 PM 33.8 °F 28.6 °F 23.0 °F 65% 30.14 in 10.0 mi West 5.8 mph - N/A   Overcast
6:35 PM 33.8 °F 27.7 °F 24.8 °F 70% 30.15 in 10.0 mi West 6.9 mph - N/A   Overcast
6:55 PM 33.8 °F 27.7 °F 24.8 °F 70% 30.15 in 10.0 mi WSW 6.9 mph - N/A   Overcast
7:15 PM 33.8 °F 27.7 °F 24.8 °F 70% 30.15 in 10.0 mi WSW 6.9 mph - N/A   Overcast
7:35 PM 33.8 °F 27.0 °F 24.8 °F 70% 30.15 in 10.0 mi WSW 8.1 mph - N/A   Overcast
7:55 PM 33.8 °F 27.0 °F 24.8 °F 70% 30.15 in 10.0 mi SW 8.1 mph - N/A   Overcast
8:15 PM 32.0 °F 25.6 °F 24.8 °F 75% 30.15 in 10.0 mi WSW 6.9 mph - N/A   Mostly Cloudy
8:35 PM 30.2 °F 24.3 °F 23.0 °F 75% 30.15 in 10.0 mi SW 5.8 mph - N/A   Scattered Clouds
8:55 PM 30.2 °F 23.4 °F 23.0 °F 75% 30.15 in 10.0 mi SW 6.9 mph - N/A   Mostly Cloudy
9:15 PM 30.2 °F 24.3 °F 24.8 °F 80% 30.14 in 10.0 mi WSW 5.8 mph - N/A   Overcast
9:35 PM 30.2 °F 24.3 °F 24.8 °F 80% 30.14 in 10.0 mi SSW 5.8 mph - N/A   Overcast
9:55 PM 30.2 °F 24.3 °F 24.8 °F 80% 30.13 in 10.0 mi SW 5.8 mph - N/A   Overcast
10:15 PM 32.0 °F 27.5 °F 24.8 °F 75% 30.13 in 10.0 mi WSW 4.6 mph - N/A   Overcast
10:35 PM 30.2 °F 23.4 °F 24.8 °F 80% 30.13 in 10.0 mi West 6.9 mph - N/A   Overcast
10:55 PM 30.2 °F 25.4 °F 24.8 °F 80% 30.12 in 10.0 mi West 4.6 mph - N/A   Overcast
11:15 PM 30.2 °F 25.4 °F 24.8 °F 80% 30.12 in 10.0 mi West 4.6 mph - N/A   Overcast
11:35 PM 30.2 °F 24.3 °F 24.8 °F 80% 30.12 in 10.0 mi West 5.8 mph - N/A   Overcast
11:55 PM 30.2 °F 23.4 °F 24.8 °F 80% 30.12 in 10.0 mi West 6.9 mph - N/A   Overcast